Dewpoint
61 55 48 46 43 41 35 36 38 41 43 48 49 47 45 49 52 57 62 58 57 64 71 71 76 75 75 76 76 77 77 77 77 77 76 75 75 75 75 75 75 73 73 72 72 72 71 71 70
48 44 44 42 32 27 39 36 35 43 46 49 48 47 46 52 59 61 61 61 61 66 71 70 76 75 75 76 76 77 77 77 77 76 76 75 75 74 74 75 74 73 72 72 71 71 70 69 68
52 42 35 32 28 25 33 34 37 44 46 47 46 50 49 56 61 62 64 61 64 66 69 74 76 76 74 75 76 76 76 76 76 76 75 75 75 74 74 74 73 73 73 73 72 71 71 70 69
39 34 31 22 23 30 32 34 36 42 46 48 47 49 58 62 62 63 62 61 64 64 68 75 76 76 74 75 75 75 75 75 75 75 75 75 74 74 74 74 74 73 73 72 71 71 70 69 68
38 31 27 25 25 27 29 31 38 39 44 45 50 49 58 64 65 64 61 60 60 60 69 71 76 76 74 74 74 74 74 75 75 74 74 74 74 74 74 74 74 73 72 72 71 70 68 68 68
30 30 26 22 24 28 29 30 34 40 44 46 48 53 56 64 64 61 58 57 56 59 65 71 76 76 75 74 74 74 75 75 74 74 73 73 73 73 73 73 73 73 73 72 71 70 69 69 69
29 25 24 22 25 28 30 30 30 37 43 44 44 47 55 61 61 56 55 54 54 57 62 67 70 74 75 75 74 74 74 75 74 74 74 74 73 73 73 74 74 73 72 72 71 71 71 71 71
25 24 22 22 24 26 31 29 36 34 50 46 45 47 55 61 60 54 52 52 53 55 58 61 66 68 69 70 74 74 74 74 75 74 74 74 74 74 74 74 74 73 73 72 72 73 72 72 72
23 21 20 18 23 26 31 29 35 41 43 45 49 55 60 61 58 54 51 51 52 54 56 58 61 64 64 66 71 73 73 73 73 73 73 72 67 70 69 71 74 73 73 73 73 73 73 72 73
18 20 19 19 27 29 31 30 30 34 41 48 50 56 59 61 56 54 57 52 52 54 55 57 63 61 62 64 72 69 68 68 68 68 72 68 67 67 67 70 73 72 72 73 73 74 74 73 65
16 16 17 21 29 30 29 30 30 31 37 40 40 44 44 54 62 61 61 62 59 56 60 62 67 68 65 65 69 65 66 67 68 69 70 72 68 68 66 64 67 68 70 63 67 67 66 63 70
12 14 15 18 29 30 29 28 30 31 36 37 38 37 37 51 59 60 60 62 62 63 64 66 68 68 66 67 70 67 64 67 66 67 70 70 68 68 68 62 64 64 63 68 70 69 72 69 67
15 14 13 18 23 29 28 28 28 29 32 35 35 38 38 41 54 57 60 62 64 64 67 68 71 70 71 70 69 69 66 66 68 68 69 69 69 69 68 66 66 71 69 70 70 71 71 69 66
16 14 12 20 20 24 25 26 26 27 30 29 30 39 46 47 52 53 55 57 60 62 68 67 68 72 72 71 70 70 71 70 69 69 69 70 69 70 68 68 67 68 70 72 71 70 70 69 68
18 16 14 15 18 22 24 23 23 29 30 30 36 51 55 59 60 63 66 67 66 64 68 70 67 68 70 70 70 68 68 68 68 70 72 71 71 71 72 67 66 69 70 73 71 70 69 67 61
14 16 11 13 14 19 23 18 30 31 30 27 49 54 56 57 58 61 63 64 66 70 71 70 68 69 70 70 73 69 70 72 71 72 71 70 70 71 70 65 66 67 69 68 67 67 66 63 60
17 12 11 15 19 17 19 21 34 32 28 35 49 52 53 54 55 58 59 60 61 63 67 67 67 68 71 72 73 75 75 73 73 73 69 71 71 70 70 68 69 71 68 68 67 67 67 64 61
16 12 14 15 19 18 18 35 39 39 33 47 52 53 51 52 53 54 55 55 58 61 63 62 63 65 69 70 72 73 70 70 70 70 69 71 70 69 70 68 69 69 66 64 64 66 64 63 60
19 16 15 15 21 21 34 40 49 48 49 50 51 50 50 50 51 51 52 52 53 55 57 59 60 62 61 64 65 67 67 69 72 68 70 69 69 69 70 67 68 68 66 66 66 63 63 58 58
14 16 15 16 19 22 37 45 48 50 52 51 49 48 49 48 47 48 49 48 49 52 53 54 57 59 59 61 63 64 69 67 66 67 69 68 67 67 67 69 67 70 66 67 64 66 59 56 59
15 15 16 14 18 21 35 42 45 48 48 47 46 46 45 45 45 45 45 46 46 48 51 54 55 57 58 60 55 59 60 60 58 59 60 62 64 65 67 67 67 67 67 62 67 64 64 57 59
17 17 15 15 16 16 31 27 42 44 44 44 44 43 41 41 41 42 43 43 43 43 46 50 53 55 53 57 55 58 52 50 51 51 53 56 59 62 62 64 66 66 64 66 64 62 65 65 59
21 20 18 19 19 19 23 23 39 43 42 43 43 42 41 40 40 40 40 42 43 44 44 48 52 52 52 54 54 50 52 50 49 50 57 59 59 59 54 60 63 63 63 66 66 65 66 65 64
21 19 21 21 19 16 18 17 37 41 42 44 43 42 41 40 40 41 42 42 42 42 42 45 48 50 50 51 51 52 51 51 49 50 49 46 48 48 54 53 57 60 60 59 61 63 64 63 63
20 22 17 17 16 17 24 21 37 41 43 43 43 42 42 41 41 40 41 40 40 41 43 43 46 48 49 49 49 49 50 51 50 50 46 49 46 45 51 55 54 51 56 56 58 60 62 63 62
22 23 19 19 15 11 24 19 37 40 42 42 42 42 40 39 38 38 41 40 37 41 43 44 45 46 47 47 47 48 48 44 44 47 45 44 44 45 50 49 50 51 51 52 55 58 61 61 63
19 20 22 23 17 9 9 34 38 39 40 41 42 41 39 38 38 38 38 38 39 41 42 43 44 45 46 45 46 46 45 46 44 45 44 42 44 42 44 46 47 48 49 50 54 49 58 59 59
19 18 20 18 21 19 12 18 28 38 38 39 40 39 39 39 37 36 36 39 40 41 40 44 44 44 44 43 43 42 43 43 44 44 44 44 43 44 45 45 47 48 48 50 51 50 55 57 58
24 21 22 25 22 17 14 20 32 36 39 39 38 38 38 38 35 35 35 37 38 39 39 42 42 42 42 41 42 42 42 43 43 42 43 43 45 46 46 47 48 49 50 51 50 52 53 53 55
20 22 25 26 26 24 26 24 36 37 39 39 37 37 37 38 35 34 35 37 38 39 39 40 42 40 41 41 42 42 43 43 43 43 44 45 45 47 47 46 47 48 48 52 52 50 52 52 52
Lifted_Index
4 4 3 2 1 -0 -1 -1 -1 -1 -1 -1 -1 -1 -1 -2 -3 -4 -3 -2 -1 -2 -3 -3 -3 -2 -3 -3 -4 -4 -3 -3 -3 -3 -3 -2 -2 -2 -2 -3 -3 -2 -2 -2 -1 -1 -1 -0 0
4 4 3 2 1 -0 -1 -1 -1 -1 -1 -1 -1 -1 -1 -2 -3 -4 -4 -2 -2 -2 -3 -3 -3 -3 -3 -3 -4 -4 -4 -3 -3 -3 -3 -3 -2 -2 -2 -3 -3 -2 -2 -2 -1 -1 -1 -0 0
4 4 3 2 1 -0 -0 -1 -1 -1 -1 -2 -2 -2 -2 -3 -4 -5 -4 -3 -3 -3 -3 -3 -4 -3 -3 -3 -3 -4 -4 -4 -3 -3 -3 -3 -3 -3 -3 -3 -3 -2 -2 -2 -2 -1 -1 -0 -0
4 3 3 2 0 -0 0 0 -0 -1 -2 -2 -2 -3 -4 -5 -5 -5 -4 -3 -3 -3 -3 -4 -4 -4 -3 -3 -3 -3 -4 -4 -3 -3 -3 -3 -3 -3 -3 -3 -3 -3 -3 -2 -2 -1 -1 -0 -0
3 3 2 0 -0 0 1 1 -0 -2 -2 -2 -3 -3 -5 -5 -5 -4 -3 -2 -2 -2 -3 -4 -5 -4 -4 -3 -3 -4 -4 -4 -3 -3 -3 -3 -3 -3 -3 -3 -3 -3 -3 -2 -2 -1 -0 -0 -0
3 2 1 -0 -0 0 1 1 -0 -1 -2 -2 -3 -4 -5 -5 -5 -4 -3 -2 -2 -2 -3 -4 -5 -5 -4 -4 -4 -4 -4 -4 -4 -3 -3 -3 -3 -3 -3 -3 -3 -3 -3 -2 -2 -1 -1 -1 -0
4 2 1 -0 -0 -0 1 1 0 -1 -1 -2 -2 -4 -5 -5 -5 -3 -2 -2 -1 -2 -3 -4 -4 -5 -4 -4 -4 -4 -4 -4 -4 -4 -4 -3 -3 -3 -3 -3 -4 -3 -3 -3 -2 -2 -2 -1 -1
4 3 1 -0 -0 -0 0 1 0 -1 -1 -2 -2 -3 -4 -5 -4 -3 -2 -1 -1 -2 -3 -3 -4 -4 -4 -4 -4 -4 -4 -4 -4 -4 -4 -4 -3 -3 -3 -4 -4 -3 -3 -3 -3 -2 -2 -2 -2
4 3 1 -0 -1 -0 -0 0 -0 -1 -1 -2 -2 -4 -4 -5 -4 -3 -2 -2 -2 -2 -2 -3 -4 -4 -4 -4 -4 -4 -4 -4 -4 -4 -4 -3 -3 -3 -3 -3 -3 -3 -3 -3 -3 -3 -3 -2 -2
5 3 1 -0 -0 -0 -0 -0 -0 -1 -1 -2 -2 -3 -4 -4 -5 -4 -3 -2 -2 -2 -3 -3 -4 -3 -3 -4 -4 -4 -4 -4 -4 -4 -4 -4 -3 -3 -3 -3 -3 -3 -2 -2 -2 -2 -2 -2 -1
4 3 1 -0 -0 0 0 -0 -0 -1 -1 -1 -1 -1 -2 -3 -4 -4 -2 -1 -1 -2 -3 -4 -4 -4 -3 -3 -3 -4 -4 -4 -4 -4 -4 -4 -4 -3 -3 -2 -2 -2 -2 -2 -2 -2 -2 -2 -2
4 3 2 1 0 0 0 -0 -1 -1 -1 -1 -0 0 0 -1 -2 -1 0 1 0 -3 -4 -5 -5 -4 -3 -3 -3 -4 -4 -5 -5 -5 -5 -5 -4 -4 -3 -3 -3 -3 -3 -3 -3 -3 -3 -3 -3
4 4 3 2 1 0 -0 -0 -1 -1 -1 -1 -0 0 0 -1 -1 0 1 2 -0 -3 -4 -5 -5 -5 -4 -4 -4 -4 -5 -5 -5 -6 -6 -5 -5 -5 -4 -4 -4 -4 -5 -5 -5 -5 -4 -3 -3
4 4 3 3 2 0 -0 -0 -0 -1 -1 -1 -1 -2 -2 -2 -3 -2 -1 -1 -2 -4 -5 -6 -5 -5 -6 -5 -5 -5 -6 -6 -6 -6 -6 -6 -6 -6 -5 -5 -5 -6 -6 -6 -6 -6 -5 -4 -3
4 4 3 3 2 1 -0 -0 -0 -1 -1 -1 -3 -4 -4 -4 -4 -5 -5 -5 -6 -6 -7 -7 -6 -6 -5 -5 -5 -6 -6 -7 -7 -7 -7 -7 -7 -7 -7 -6 -6 -6 -7 -7 -7 -6 -5 -4 -3
3 3 2 1 1 1 0 -0 -1 -1 -1 -2 -4 -5 -4 -3 -3 -3 -5 -6 -8 -8 -8 -7 -6 -5 -5 -5 -5 -6 -7 -8 -8 -8 -8 -8 -8 -8 -8 -7 -7 -7 -7 -7 -6 -6 -5 -4 -3
2 1 0 0 0 0 -0 -1 -1 -1 -2 -3 -5 -5 -3 -2 -1 -1 -3 -5 -6 -7 -7 -6 -5 -5 -5 -5 -5 -7 -8 -9 -9 -8 -8 -8 -8 -9 -8 -8 -7 -7 -7 -6 -6 -6 -5 -4 -3
0 -0 -0 -0 0 0 -0 -1 -2 -2 -3 -4 -5 -4 -2 -1 -0 -0 -2 -3 -5 -5 -5 -4 -4 -4 -3 -3 -5 -7 -8 -9 -9 -8 -8 -8 -8 -9 -8 -8 -7 -7 -6 -6 -5 -5 -4 -3 -2
1 0 -0 -0 0 0 -1 -2 -3 -3 -4 -5 -4 -3 -1 -0 -0 -1 -2 -3 -4 -4 -4 -3 -3 -3 -2 -2 -3 -6 -7 -8 -8 -8 -8 -8 -8 -8 -7 -7 -6 -6 -5 -5 -4 -4 -3 -2 -2
2 1 -0 -0 0 0 -1 -2 -3 -3 -3 -4 -3 -2 -0 0 -0 -1 -2 -3 -3 -3 -2 -2 -2 -2 -1 -1 -2 -4 -5 -6 -6 -6 -6 -6 -6 -6 -6 -6 -6 -6 -5 -4 -4 -3 -2 -2 -1
1 1 0 -0 0 -0 -1 -2 -2 -2 -2 -2 -1 -0 1 2 2 1 -1 -1 -1 -0 0 0 0 0 1 0 -1 -2 -2 -3 -3 -3 -3 -4 -4 -5 -5 -5 -5 -5 -5 -5 -4 -3 -3 -2 -2
1 1 1 1 0 -0 -1 -2 -2 -2 -1 -1 -0 1 2 3 3 3 2 2 2 2 3 3 3 3 3 2 2 1 0 0 0 0 -0 -1 -2 -3 -3 -4 -4 -4 -5 -5 -4 -4 -3 -3 -3
1 2 2 1 0 -0 -1 -1 -2 -2 -1 -1 0 1 2 3 4 4 4 4 4 4 4 4 4 4 5 4 4 3 3 3 3 3 3 2 1 1 -0 -1 -2 -2 -3 -4 -4 -3 -3 -3 -3
3 2 2 1 -0 -0 -0 -1 -1 -2 -1 -1 -0 1 2 2 3 3 3 4 5 5 5 6 6 6 6 6 6 6 6 6 6 5 5 5 5 4 3 3 2 1 -0 -1 -2 -2 -2 -2 -2
2 2 1 0 -0 -0 -0 -1 -1 -1 -1 -0 -0 0 1 1 2 3 3 4 5 6 6 6 7 7 7 7 7 7 8 8 8 8 8 8 8 7 7 6 5 5 4 3 1 0 -1 -1 -2
1 1 0 -0 -0 -0 -0 -1 -1 -0 0 1 0 -0 -1 0 2 3 4 5 6 6 7 7 7 7 8 8 9 9 9 10 10 10 11 11 11 10 10 9 9 8 7 6 4 2 1 -0 -0
1 1 1 0 -0 -0 -0 -1 -1 -0 1 1 1 -0 -0 1 3 4 5 6 6 7 7 8 8 8 9 9 10 11 11 12 12 13 13 13 13 13 13 12 11 10 8 7 6 4 3 1 1
2 1 1 0 0 -0 -0 -0 -1 -0 0 1 1 1 1 2 4 5 6 6 7 7 8 9 9 10 10 11 12 12 13 14 14 14 14 15 14 14 14 13 12 10 9 8 7 6 4 3 2
2 1 1 1 0 -0 -0 -1 -1 -1 -0 1 1 2 2 4 5 5 6 7 7 8 9 10 10 11 12 12 13 14 14 14 15 15 14 14 14 13 12 12 11 9 8 7 7 6 5 4 3
2 2 1 1 0 -0 -1 -1 -1 -1 -1 0 1 2 3 4 5 6 6 7 8 8 9 10 11 12 12 13 13 14 14 14 14 14 14 13 13 12 11 11 10 9 8 7 6 6 5 4 4